Home > Time Zones > World Clock > Weather > Spain > Palma > Past weeks

Flag for Spain Weather past 2 weeks in Palma, Majorca, Spain

Now
63 °F

Passing clouds.


Feels Like: 63 °F
Forecast: 51 / 71 °F
Wind: 5 mph from Southwest

Location: Palma De Mallorca / Son San Juan


UV Index: 5 (Moderate)

Visibility: N/A


Pressure: 30.04 "Hg

Humidity: 73%

Dew point: 54 °F

Location of PalmaLocation

Historic Weather in Palma

°F

Palma temperature yesterday

Maximum temperature yesterday: 72 °F (at 11:30 AM)
Minimum temperature yesterday: 48 °F (at 7:30 AM)
Average temperature yesterday: 61 °F

Past Weeks' High & Low Weather Summary

 TemperatureHumidityPressure
High77 °F (Apr 12, 3:00 PM)100% (Apr 6, 4:00 AM)30.24 "Hg (Apr 6, 4:00 AM)
Low46 °F (Apr 6, 7:00 AM)26% (Apr 16, 7:30 PM)29.47 "Hg (Apr 3, 12:30 PM)
Average60 °F75%30.00 "Hg
* Reported Apr 2 8:00 PM — Apr 17 8:00 PM, Palma, Weather by CustomWeather, © 2014

Note: Actual official high and low records may vary slightly from our data, if they occured in-between our weather recording intervals... More about our weather records

Advertising

Historic Weather Conditions — Data for Previous 24 hours

 ConditionsComfort  
Time TempWeatherWind HumidityBarometerVisibility
8:00 PM
Apr 17
63 °FPassing clouds.7 mph73%30.04 "HgN/A
7:00 PM64 °FPassing clouds.9 mph68%30.04 "HgN/A
6:30 PM64 °FPassing clouds.12 mph68%30.04 "HgN/A
6:00 PM66 °FPassing clouds.13 mph64%30.04 "HgN/A
5:30 PM66 °FPassing clouds.13 mph64%30.04 "HgN/A
5:00 PM66 °FPassing clouds.13 mph64%30.07 "HgN/A
4:30 PM66 °FPassing clouds.14 mph64%30.07 "HgN/A
4:00 PM66 °FPassing clouds.13 mph68%30.07 "HgN/A
3:30 PM66 °FPassing clouds.15 mph68%30.07 "HgN/A
3:00 PM66 °FPassing clouds.15 mph68%30.09 "HgN/A
2:30 PM66 °FPassing clouds.16 mph64%30.09 "HgN/A
2:00 PM68 °FPassing clouds.15 mph56%30.09 "HgN/A
1:30 PM66 °FPassing clouds.14 mph68%30.09 "HgN/A
1:00 PM66 °FPassing clouds.13 mph68%30.09 "HgN/A
12:30 PM66 °FPassing clouds.12 mph64%30.12 "HgN/A
12:00 PM68 °FPassing clouds.6 mph53%30.12 "HgN/A
11:30 AM68 °FPassing clouds.2 mph56%30.12 "HgN/A
11:00 AM66 °FPassing clouds.1 mph60%30.12 "HgN/A
10:30 AM64 °FPassing clouds.2 mph64%30.12 "HgN/A
10:00 AM63 °FPassing clouds.5 mph68%30.12 "HgN/A
9:30 AM61 °FPassing clouds.3 mph72%30.09 "HgN/A
9:00 AM57 °FPassing clouds.2 mph77%30.09 "HgN/A
8:30 AM54 °FPassing clouds.2 mph82%30.12 "HgN/A
8:00 AM52 °FPassing clouds.No wind82%30.09 "HgN/A
7:30 AM52 °FPassing clouds.3 mph82%30.09 "HgN/A
7:00 AM52 °FPassing clouds.2 mph77%30.09 "HgN/A
6:30 AM50 °FPassing clouds.3 mph88%30.09 "HgN/A
6:00 AM50 °FPassing clouds.6 mph82%30.09 "HgN/A
5:30 AM50 °FClear.7 mph82%30.09 "Hg10 mi
5:00 AM48 °FClear.8 mph82%30.09 "Hg10 mi
4:30 AM48 °FPassing clouds.7 mph82%30.09 "HgN/A
4:00 AM50 °FClear.7 mph76%30.09 "Hg10 mi
3:30 AM50 °FPassing clouds.6 mph76%30.09 "HgN/A
3:00 AM50 °FClear.5 mph76%30.09 "Hg10 mi
2:30 AM50 °FClear.5 mph76%30.12 "Hg10 mi
2:00 AM50 °FClear.7 mph76%30.12 "Hg10 mi
1:30 AM52 °FClear.7 mph77%30.12 "Hg10 mi
1:00 AM52 °FClear.5 mph72%30.12 "Hg10 mi
12:30 AM52 °FClear.5 mph72%30.12 "Hg10 mi
12:00 AM54 °FClear.3 mph72%30.12 "Hg10 mi
11:30 PM
Apr 16
54 °FClear.6 mph67%30.12 "Hg10 mi
11:00 PM55 °FClear.6 mph59%30.12 "Hg10 mi
10:30 PM57 °FClear.5 mph51%30.12 "Hg10 mi
10:00 PM57 °FClear.2 mph51%30.09 "Hg10 mi
9:30 PM59 °FClear.2 mph45%30.09 "Hg10 mi
9:00 PM63 °FSunny.1 mph39%30.09 "Hg10 mi
Weather by CustomWeather, © 2014

See weather overview